STARLINK-11457, 62919

Orbit data source: Space-Track

STARLINK-11457, 62919 is a payload satellite owned by SpaceX/Seattle (US) in LEO that was launched on Sat, 08 Feb 2025 UTC via an FALCON 9 launch vehicle from the Air Force Eastern Test Range (AFETR). Payload-class satellites include a variety of spacecraft equipped with specific instruments for various scientific and technological missions. These include communications satellites like Starlink; space stations such as the ISS; scientific satellites like the Hubble; Earth observation satellites from companies like Planet Labs, Umbra, and HawkEye 360; GPS; miniature CubeSats for education and research; and military/defense satellites.

Loading next visibility...
Identifier
62919, 2025-027N
Orbit
LEO
Country
Flag of USUS
Related business
Manufacturer
SpaceX/Seattle
Mission
Operational Commercial Communications
Bus & Motor
STARLINK V2MD, Unknown motor
Mass
960 kg wet, ~910 kg dry
Launch date (UTC)
2025-02-08 (9 months ago)
Launch vehicle
FALCON 9
Launch site
Air Force Eastern Test Range (AFETR)
Object type
Payload
Rocket body
Debris
Shape & HBR
Box + 2 Pan, 18.1 m
Radar Cross Section
36.964 m², Large (>1 m²)

Expand to show TLE details & history
Last TLE update: 1 day ago

TLE from 1 day ago
0 STARLINK-11457
1 62919U 25027N   25309.30674653  .00398069  00000-0  29270-2 0  9993
2 62919  42.9992  17.0674 0001451 233.7503 126.3231 15.71103403 43597
Epoch: 2025-11-05T07:21Z
TLE epoch observation values (Epoch: 2025-11-05T07:21:42.900Z)
Latitude
0.00001°
Longitude
-138.14264°
Altitude
356.092 km
Speed
7.697 km/s
True Right ascension
01h 08m 16s
True Declination
0° 00' 00"
Sunlit
Object was in full shadow at epoch
Visualization orbit readout
Latitude
Unknown
Longitude
Unknown
Altitude
Unknown
Speed
Unknown
Apparent Right ascension
Unknown
Apparent Declination
Unknown
Sunlit
N/A
Visualization observer readout
Local Sidereal Time
06:12:27
Azimuth
Unknown
Elevation
Unknown
Doppler factor
Unknown
Orbital elements
Apogee altitude
358.702 km
Perigee altitude
356.747 km
Semi-major axis
6,735.861 km
Eccentricity
0.00015
Inclination
42.9992°
RAAN
17.0674°
Arg. of periapsis
233.7503°
True anomaly
126.33649°
Mean anomaly
126.3231°
Eccentric anomaly
126.3298°
Mean motion
3.92603 °/min
Orbital period
91.7 mins
BSTAR
0.002927
Loading maneuver chart data...
Computing Atmospheric mass density...
Loading historical data...
Loading historical data...
Loading historical data...
Loading historical data...
Loading historical data...
Loading historical data...
Loading historical data...

Documentation

Showing up to 5 results
|